Weather Roundup
Issued by NWS Springfield, MO

Home | Current Version | Previous Version | Text Only | Print | Product List | Glossary On
Versions: 1 2 3 4 5 6 7 8 9 10 11 12 13 14 15 16 17 18 19 20 21 22 23 24 25 26 27 28 29 30 31 32 33 34 35 36 37 38 39 40 41 42 43 44 45 46 47 48 49 50
000
NZUS99 KSGF 010807
HRRSGF

HOURLY WEATHER
NATIONAL WEATHER SERVICE SPRINGFIELD MO
200 AM CST SUN MAR 01 2015

......SGF CWA......

CITY           SKY/WX    TMP DP  RH WIND       PRES   REMARKS
SPRINGFIELD    CLOUDY    27  25  92 S3        30.32R
JOPLIN         CLOUDY    27  25  92 CALM      30.34S FOG
WEST PLAINS    FRZ RAIN  28  26  92 SE6       30.32F FOG     WCI  22
ROLLA          CLOUDY    24  22  91 CALM      30.32S
OSAGE BEACH    CLOUDY    27  23  86 CALM      30.34F
BRANSON        LGT RAIN  28  27  93 CALM      30.32S

......SURROUNDING SGF CWA......

CITY           SKY/WX    TMP DP  RH WIND       PRES   REMARKS
CHANUTE        CLOUDY    23  22  96 MISG      30.35S FOG
PARSONS        CLOUDY    25  23  92 N3        30.36S
COFFEYVILLE    CLOUDY    25  24  96 NW5       30.36S FOG     WCI  19
EMPORIA        CLOUDY    21  19  92 CALM      30.34R
GROVE OK       CLOUDY    32  32 100 CALM      30.35S FOG
ROGERS AR      CLOUDY    29  28  96 SE3       30.30F FOG
SILOAM SPRINGS CLOUDY    30  27  86 CALM      30.32F
HARRISON AR    FRZ RAIN  27  27 100 SE8       30.31F FOG     WCI  19
NEAR YELLVILLE CLOUDY    28  25  86 CALM      30.34F

......KANSAS AND MISSOURI......

CITY           SKY/WX    TMP DP  RH WIND       PRES   REMARKS
KANSAS CTY INT CLOUDY    22  20  92 CALM      30.35S
DOWNTOWN KC    CLOUDY    25  21  85 CALM      30.37F
COLUMBIA       LGT SNOW  24  22  91 E5        30.35S FOG     WCI  18
SEDALIA        LGT SNOW  24  21  88 N3        30.37R FOG
ST JOSEPH      CLOUDY    23  19  85 CALM      30.38F
ST LOUIS       LGT SNOW  27  21  80 CALM      30.39S FOG
SPIRIT OF STL  LGT SNOW  26  23  88 CALM      30.37F FOG
KIRKSVILLE     LGT SNOW  20  19  96 CALM      30.38R FOG
WICHITA        FOG       22  21  96 CALM      30.33S VSB 1
TOPEKA         CLOUDY    23  18  81 CALM      30.37R
OLATHE         CLOUDY    22  20  92 CALM      30.33F

......TENNESSEE......

CITY           SKY/WX    TMP DP  RH WIND       PRES   REMARKS
MEMPHIS        CLOUDY    37  24  59 N6        30.36R WCI  32
NASHVILLE      MOCLDY    40  29  64 CALM      30.37S

......ARKANSAS.......

CITY           SKY/WX    TMP DP  RH WIND       PRES   REMARKS
FAYETTEVILLE   MIX PCPN  31  31 100 CALM      30.31S FOG
FT SMITH       FRZ RAIN  32  30  92 E7        30.35F FOG     WCI  26
LITTLE ROCK    CLOUDY    33  26  75 NE6       30.38S WCI  28

......OKLAHOMA.......

CITY           SKY/WX    TMP DP  RH WIND       PRES   REMARKS
TULSA          CLOUDY    28  27  96 CALM      30.35S FOG
PONCA CITY     CLOUDY    25  24  96 N5        30.34F FOG     WCI  19
MCALESTER      FRZ RAIN  32  30  92 CALM      30.34R FOG
OKLAHOMA CITY  CLOUDY    28  25  88 N3        30.32R FOG

......IOWA............

CITY           SKY/WX    TMP DP  RH WIND       PRES   REMARKS
DES MOINES     FLURRIES  20  16  84 S7        30.37S WCI  11
QUAD CITIES    FAIR       3  -1  83 CALM      30.42S

......ILLINOIS........

CITY           SKY/WX    TMP DP  RH WIND       PRES   REMARKS
QUINCY         LGT SNOW  21  18  88 E5        30.38S FOG     WCI  15
CHICAGO        PTCLDY    16  13  88 S3        30.41F



USA.gov is the U.S. government's official web portal to all federal, state and local government web resources and services.